GFSSW_250_rhum_009.txt.gz
RH
9 10 11 10 8 6 8 10 10 11 12 12 12 15 17 17 18 20 25 41 35 30 36 30 25 26 28 22 19 23 24 25 27 34 36 52 37 42 40 32 22 18 14 11 16
10 7 7 7 9 7 6 6 9 10 11 12 12 13 15 13 10 15 24 27 28 29 28 30 29 22 16 20 20 21 24 25 23 29 39 43 37 41 34 33 21 18 11 14 19
8 8 8 6 6 6 6 6 7 9 11 11 11 13 14 12 9 16 24 26 24 22 25 28 35 22 16 22 20 18 20 21 23 31 37 38 47 39 33 31 22 15 12 16 23
5 3 3 6 9 6 6 6 7 7 8 10 10 12 13 12 12 17 18 24 18 21 19 23 27 24 16 24 22 22 17 19 23 28 38 44 52 30 46 31 20 15 16 26 19
5 4 2 2 3 8 7 5 6 7 7 9 9 9 8 8 14 16 21 21 18 21 20 23 24 25 21 21 27 22 17 21 26 25 35 58 42 35 45 28 17 16 17 32 12
3 3 3 2 2 2 7 7 6 6 7 7 9 7 8 9 15 19 20 15 16 18 19 22 24 23 20 25 34 21 19 20 25 27 41 51 50 52 31 29 17 18 29 30 12
3 1 1 2 2 2 2 7 8 6 6 8 7 7 8 11 12 19 16 12 16 17 19 21 22 19 23 26 46 27 17 18 25 27 52 60 78 61 43 25 18 22 41 22 11
7 3 1 1 2 2 2 3 9 7 6 7 6 7 9 9 9 11 12 11 12 16 18 18 17 17 21 24 35 30 22 22 21 27 47 79 65 65 49 25 18 31 42 22 17
47 24 3 2 2 2 3 3 5 11 7 6 7 8 10 10 8 11 10 10 12 16 18 14 12 14 19 24 37 36 21 20 20 28 60 87 57 76 53 25 19 38 47 32 32
80 81 17 4 3 2 2 3 4 9 10 6 8 9 11 13 11 12 10 10 12 13 12 13 12 12 18 25 32 33 22 21 21 31 70 79 53 87 49 23 25 58 62 54 64
100 100 65 29 8 4 4 3 4 6 10 8 9 14 14 15 12 13 11 10 10 9 10 11 11 12 21 27 26 33 26 19 20 29 64 85 75 99 38 27 40 66 65 75 88
100 100 100 88 61 15 6 6 5 5 10 10 7 11 14 15 14 15 13 9 9 9 10 12 10 16 20 22 29 31 24 18 24 37 58 97 84 84 46 28 37 68 75 79 90
100 100 100 100 100 84 43 9 7 6 6 13 8 12 16 18 18 19 14 10 14 12 11 10 17 17 19 25 29 30 22 22 32 41 96 89 98 88 39 25 27 54 86 88 94
100 100 100 100 100 100 100 88 26 10 8 12 11 11 15 19 22 23 19 14 14 13 13 15 15 18 18 25 25 24 24 22 23 33 97 85 99 77 30 24 26 31 45 52 40
100 100 100 100 100 100 100 100 95 27 15 13 16 12 14 18 19 22 19 16 18 18 14 16 16 19 20 27 26 29 27 23 19 54 99 79 99 55 29 27 27 34 29 35 44
100 100 100 100 100 100 100 100 100 100 50 20 21 23 18 22 17 18 17 15 25 20 17 26 21 20 21 25 28 28 26 22 22 74 93 100 91 43 34 32 30 38 41 37 39
100 100 100 100 100 100 100 100 100 100 100 100 65 31 32 31 25 23 17 19 20 17 16 28 24 26 29 27 30 28 26 23 37 99 98 99 88 40 40 35 31 35 42 48 51
100 100 100 100 100 100 100 100 100 100 100 100 100 92 39 34 30 29 31 38 32 33 35 27 26 28 26 27 29 25 25 39 64 100 100 99 80 43 42 46 44 43 47 45 46
95 100 100 100 100 100 100 100 100 100 100 100 100 85 79 72 40 32 30 34 36 40 30 29 32 36 47 44 39 28 59 75 68 100 100 100 74 50 44 53 54 58 67 70 58
83 96 92 97 100 100 100 100 99 100 100 100 100 100 100 91 88 98 92 66 37 35 34 36 39 44 44 44 40 79 96 88 100 100 100 96 72 56 54 43 61 79 74 66 59
76 82 100 90 97 100 100 100 100 100 100 100 100 100 100 100 100 100 100 100 100 97 62 53 69 65 57 57 97 100 100 100 100 100 100 94 80 58 48 40 43 56 73 80 74
100 91 97 80 100 100 100 100 100 100 100 100 89 94 98 100 100 100 100 100 100 100 100 100 95 96 100 100 100 100 100 100 100 100 100 97 89 79 60 54 51 50 55 64 75
100 100 71 96 72 100 100 100 100 100 98 100 100 100 100 98 100 100 100 100 100 100 100 100 100 100 100 100 100 100 100 100 100 100 100 100 100 94 88 82 85 91 96 99 99
96 88 100 100 72 77 92 100 100 100 100 98 97 100 100 100 100 100 100 100 100 100 100 100 100 100 100 100 100 100 100 100 100 100 100 100 100 100 100 100 100 97 93 90 85
94 88 96 100 99 100 73 81 97 100 100 100 92 100 100 100 100 100 100 100 100 100 100 100 100 100 100 100 100 100 100 100 100 100 100 100 100 100 90 86 89 87 81 79 65
52 78 91 100 88 100 100 94 100 89 87 100 100 100 88 98 100 100 100 100 100 100 100 100 99 100 100 100 100 98 98 96 96 88 94 86 84 86 98 97 94 85 84 84 90
40 61 69 87 99 97 100 100 60 84 100 100 98 71 80 92 90 85 92 100 96 99 91 98 100 100 100 100 100 100 100 93 78 74 76 80 96 99 94 95 96 99 93 77 78

GFSSW_250_rhum_012.txt.gz
RH
22 14 11 9 6 7 7 8 11 12 14 15 17 18 18 20 23 25 26 25 38 36 39 30 26 27 25 20 16 18 22 22 22 22 25 30 39 35 45 47 39 32 24 27 23
16 14 10 8 9 6 6 7 7 10 11 13 15 18 18 19 20 22 27 28 27 38 44 42 35 28 32 25 18 20 19 19 24 24 27 29 33 31 40 48 36 29 31 26 22
26 13 7 5 5 8 6 6 6 7 11 11 13 14 18 19 18 20 26 26 32 33 43 43 36 38 34 28 22 22 17 18 20 22 27 27 25 34 45 42 39 33 36 35 18
39 11 4 4 2 4 8 6 6 6 8 11 10 13 13 15 17 18 21 23 27 32 32 41 43 42 33 31 23 19 17 18 17 23 23 23 26 31 36 39 39 36 46 29 14
58 10 3 3 2 2 6 9 6 6 6 8 10 10 12 13 17 18 19 20 24 29 29 30 38 39 31 34 30 19 18 18 21 20 20 24 27 28 34 37 36 48 45 22 12
66 19 3 2 2 2 3 6 9 6 6 6 8 9 11 12 13 19 20 19 19 24 30 30 37 39 26 30 32 19 19 18 23 18 18 24 25 34 31 40 65 55 35 18 14
99 43 5 2 1 2 2 3 6 7 6 6 6 8 9 18 11 18 16 17 19 24 26 34 32 28 22 26 29 29 22 19 22 19 19 21 26 31 44 69 66 50 34 19 25
100 62 14 2 1 1 2 3 4 8 7 7 6 6 12 12 12 15 16 15 18 20 25 29 25 21 21 24 26 28 27 22 20 24 18 23 24 34 51 76 56 56 32 22 37
100 100 37 5 3 2 2 2 4 6 9 7 6 8 8 8 10 19 17 17 20 20 24 22 20 24 24 26 26 27 25 27 35 29 20 23 24 60 76 70 60 57 38 22 37
100 100 61 18 4 3 3 2 3 4 8 8 7 9 8 10 12 14 18 15 17 20 22 19 20 22 25 26 33 26 23 35 42 30 20 21 23 100 89 79 71 71 34 25 44
100 100 88 43 9 5 3 3 3 3 7 9 8 13 10 8 10 11 14 17 18 17 17 16 18 18 23 36 21 23 22 32 41 33 22 16 27 65 83 81 80 68 32 29 52
100 100 99 88 38 13 5 3 4 3 6 9 8 12 11 8 11 10 12 16 13 13 14 14 17 20 26 18 20 20 23 30 38 34 23 18 32 58 79 77 77 66 34 27 57
100 100 100 100 59 37 10 5 5 4 5 10 8 11 13 10 11 12 11 13 17 13 14 16 19 21 21 19 19 20 23 27 34 33 24 21 31 55 84 72 70 61 36 25 36
100 100 100 100 100 96 24 10 6 5 6 11 9 14 15 13 12 11 11 13 12 13 12 14 18 14 20 20 19 19 23 24 33 29 24 30 53 57 80 71 78 57 35 25 24
95 100 100 100 100 100 98 51 11 6 7 13 9 14 17 16 15 13 13 11 14 14 12 11 12 11 15 18 17 19 23 24 30 30 23 31 51 64 86 66 70 48 31 27 29
100 100 100 100 100 100 100 93 36 9 9 14 11 14 17 18 17 17 14 13 13 13 14 13 12 13 18 16 17 18 22 26 29 30 23 21 46 71 79 71 62 43 33 32 37
100 100 100 100 100 100 100 100 100 29 12 16 10 14 19 22 19 18 13 13 12 11 11 10 11 13 15 15 16 23 23 26 29 30 26 23 71 100 93 69 66 44 34 36 41
100 100 100 100 100 100 100 100 100 99 19 19 14 15 21 23 26 16 16 18 17 18 14 12 11 14 15 15 18 24 22 23 29 30 24 22 94 100 84 70 75 48 38 33 34
90 94 98 100 100 100 100 100 100 100 74 27 24 20 19 24 28 19 15 18 17 17 13 12 15 18 19 17 20 25 26 26 31 30 25 36 100 100 100 73 79 56 40 40 38
99 68 92 100 100 100 100 100 98 100 100 86 40 32 25 25 26 27 18 20 27 23 18 16 16 17 18 18 24 26 25 30 31 27 37 54 100 100 95 91 79 64 45 44 51
100 83 88 100 100 100 94 100 100 99 100 100 93 58 40 38 30 28 27 25 24 33 24 26 30 26 23 26 30 28 29 31 27 28 53 78 100 100 92 100 97 71 56 50 46
94 67 100 100 100 100 100 100 100 100 100 84 100 90 84 50 49 44 44 36 29 26 24 23 30 32 29 27 26 27 31 34 32 63 84 100 100 100 100 100 100 90 71 64 64
83 100 97 95 100 91 99 94 100 80 100 94 77 96 94 83 55 46 51 53 48 51 41 32 29 30 26 28 29 33 41 36 49 75 96 100 100 100 100 100 100 100 100 97 98
100 91 67 92 100 100 99 91 96 100 96 100 98 99 81 78 87 83 83 59 61 57 47 38 38 40 44 45 44 41 36 62 100 98 100 100 92 100 100 100 100 100 100 100 100
100 100 71 65 100 100 100 89 99 97 100 98 100 100 100 99 100 100 99 100 100 100 93 88 57 53 55 44 40 40 90 100 100 100 100 100 100 100 100 100 100 100 100 94 88
92 100 100 63 90 100 98 100 100 94 85 100 66 100 100 100 100 100 100 100 100 100 100 100 100 100 100 100 99 100 98 94 98 100 100 100 100 100 100 100 92 80 71 65 64
70 78 98 93 78 79 79 97 100 96 100 62 64 90 100 99 76 100 100 100 100 100 99 100 100 100 100 100 100 100 100 100 100 100 100 100 100 89 78 72 62 57 58 57 57

GFSSW_250_rhum_018.txt.gz
RH
49 40 37 38 37 31 28 24 27 25 19 16 11 13 13 12 15 20 27 37 36 34 35 30 33 39 39 39 52 68 75 74 66 49 42 35 30 26 26 23 22 22 22 24 31
52 48 42 63 46 56 67 37 21 18 16 16 10 10 12 11 13 17 37 33 32 32 31 35 39 41 41 34 32 33 32 34 39 34 29 26 24 22 20 18 20 21 22 22 22
52 41 56 56 73 78 70 57 28 19 15 7 10 8 8 10 11 18 23 31 32 30 27 33 37 40 31 36 33 34 32 26 23 24 24 22 23 23 20 20 22 22 20 20 22
46 59 66 71 71 83 98 87 34 8 5 4 6 8 8 9 10 16 18 32 30 26 24 27 32 31 30 34 33 34 30 22 18 19 19 23 25 21 22 21 23 25 26 28 29
57 66 76 70 96 100 81 89 18 4 2 2 5 8 8 8 10 16 20 27 27 21 21 25 27 26 31 35 36 29 24 21 19 18 17 18 21 22 19 19 27 29 27 30 62
54 63 72 76 88 96 76 62 10 3 2 2 3 5 7 8 12 13 19 24 23 20 23 22 22 25 31 29 34 26 18 23 22 18 17 18 17 18 17 23 29 27 27 39 71
56 69 79 66 94 91 88 55 11 3 1 2 3 4 7 12 10 11 18 20 21 22 26 19 23 22 28 28 35 24 23 36 24 20 18 21 18 16 19 20 23 24 23 34 86
55 63 72 63 89 95 99 62 16 4 2 2 2 4 8 8 9 11 17 18 20 23 25 19 23 23 30 26 32 28 34 39 19 31 20 25 18 20 21 23 27 28 26 42 100
58 69 74 74 82 99 100 60 20 4 2 2 2 3 8 7 10 12 16 17 18 22 24 19 23 25 26 25 36 30 43 46 35 32 24 28 21 23 22 18 26 27 29 63 100
70 72 83 57 76 92 82 48 17 5 3 3 2 3 8 8 9 12 14 16 19 21 23 18 22 26 27 25 30 49 52 42 41 30 27 26 21 25 22 18 22 28 42 100 100
84 70 77 63 55 100 91 57 22 7 4 4 4 5 7 7 8 12 12 16 18 20 20 19 20 24 31 40 46 44 37 32 52 35 29 24 28 29 23 22 21 34 58 100 100
74 85 81 52 100 100 100 82 39 12 6 4 5 8 6 7 8 12 11 16 18 18 22 19 20 29 33 35 36 34 32 42 43 46 31 26 34 33 25 23 21 31 52 100 100
60 64 80 67 100 100 100 100 45 19 7 5 6 8 6 7 8 10 12 18 18 17 21 20 19 26 28 29 33 36 38 40 36 44 37 28 38 35 26 24 26 28 45 100 100
69 60 70 97 100 100 100 100 61 26 10 6 6 9 8 8 8 9 12 16 20 22 23 20 18 24 26 29 31 34 40 38 37 42 33 35 41 36 26 26 28 32 44 90 100
78 74 79 100 100 100 100 100 81 24 11 8 8 9 8 9 8 9 13 13 20 26 21 19 18 22 24 26 28 31 34 34 36 43 34 35 43 40 28 23 30 35 31 40 100
71 73 64 91 100 100 100 100 90 24 11 9 11 11 8 8 10 9 12 13 18 22 22 19 18 20 22 25 24 25 27 29 33 39 40 31 33 37 29 26 24 30 33 32 96
79 71 88 88 100 100 100 100 100 37 12 10 11 11 9 8 10 10 10 14 14 16 19 18 18 18 25 24 22 22 25 28 33 38 40 31 29 42 28 26 23 26 30 31 71
66 72 100 92 100 100 100 100 100 49 15 11 11 13 10 8 9 10 10 11 13 15 21 20 16 18 22 22 22 23 27 28 30 33 34 28 28 32 27 24 22 25 28 27 44
75 65 96 89 100 98 100 100 100 85 16 12 13 14 10 9 9 8 9 12 12 13 16 19 25 25 24 24 23 24 24 25 27 31 33 30 27 28 27 22 20 24 27 32 35
84 64 97 96 100 100 100 100 100 86 21 13 15 16 10 11 11 10 9 10 14 14 15 18 21 24 27 26 25 24 26 22 24 28 34 31 28 27 24 21 18 23 24 32 38
78 62 82 68 100 100 100 100 100 92 30 19 19 16 12 14 12 12 12 13 12 15 15 15 18 21 24 27 27 26 28 27 25 32 36 31 28 24 22 20 18 21 26 34 60
77 70 99 57 100 100 100 100 100 70 33 28 21 14 15 17 17 19 18 16 14 14 15 16 15 16 18 20 22 24 24 22 25 33 30 26 24 22 20 18 18 25 30 36 38
76 68 98 54 100 100 100 100 100 75 38 29 25 20 20 17 24 29 20 17 16 15 15 15 16 15 16 16 16 18 21 21 24 26 23 20 21 18 17 18 19 30 35 35 34
84 71 90 99 94 93 99 100 100 100 44 39 27 28 26 26 30 31 26 25 22 17 16 16 18 18 19 21 20 19 19 19 20 20 19 18 17 17 18 19 24 32 36 35 35
89 65 65 100 100 94 89 100 100 100 70 58 45 38 43 35 35 38 37 30 28 25 21 19 18 18 18 17 16 15 14 14 14 15 14 16 17 18 20 20 28 34 36 34 38
98 68 78 89 97 100 94 100 98 100 100 62 67 62 49 43 45 46 44 42 37 30 25 24 24 21 19 17 16 16 14 14 15 15 16 17 16 19 23 31 34 36 37 39 98
96 89 56 83 100 100 80 100 100 100 100 100 88 70 72 55 45 38 34 35 37 39 34 28 26 26 24 22 21 21 21 21 20 20 19 22 23 22 32 40 38 37 57 87 96

GFSSW_250_rhum_021.txt.gz
RH
50 49 39 39 43 39 29 31 31 32 33 28 32 24 20 20 14 16 19 20 24 30 26 34 32 35 38 56 100 100 100 95 86 74 77 95 100 96 87 90 94 94 85 69 40
67 64 48 44 43 29 36 43 43 45 43 41 37 26 23 19 17 13 18 16 23 30 26 31 37 33 37 54 82 100 100 98 84 65 92 96 89 84 79 74 68 62 47 31 26
75 71 59 52 38 46 54 59 65 72 75 67 49 33 24 16 17 17 14 14 19 25 31 29 38 32 37 54 58 70 86 84 88 80 92 88 79 68 57 46 37 30 23 22 21
79 74 70 52 51 66 62 66 88 97 87 79 54 39 21 12 10 13 12 16 14 22 30 28 33 32 35 52 52 53 61 65 70 66 62 58 52 47 38 32 26 24 24 22 20
84 80 68 49 58 64 65 77 100 97 93 83 62 33 5 6 6 14 10 15 12 18 26 26 28 33 37 52 50 50 41 39 36 32 30 28 26 26 24 20 24 24 22 22 22
80 85 76 54 78 72 64 88 97 95 90 69 50 9 2 2 5 11 10 12 12 16 21 25 26 33 42 51 49 51 39 36 34 31 22 21 22 23 20 23 25 20 21 22 21
84 89 76 58 80 70 58 85 99 99 80 49 23 4 2 2 3 9 12 10 12 15 21 24 30 31 37 46 50 46 36 34 36 32 22 23 20 19 20 19 19 19 19 19 24
84 94 72 62 88 55 85 92 100 99 66 28 9 3 2 2 3 8 11 10 12 14 21 20 29 29 34 43 45 43 32 33 37 30 22 29 18 20 18 17 18 19 21 24 25
81 95 70 64 81 57 84 100 100 84 44 14 6 2 1 2 3 9 10 9 13 14 20 19 27 25 29 37 39 31 30 35 28 28 30 25 20 26 18 18 18 21 20 25 26
82 96 64 83 59 67 95 89 96 67 41 19 6 3 2 2 3 8 10 9 14 14 18 15 22 21 28 32 28 31 35 43 26 44 34 29 20 32 27 23 20 21 20 23 29
85 100 62 81 51 66 73 100 100 92 54 26 7 3 3 2 4 8 10 10 14 13 16 15 19 20 27 27 33 41 40 40 25 49 48 30 23 33 28 21 20 18 21 23 25
90 100 68 91 51 53 96 100 100 87 75 18 6 4 4 3 6 8 8 10 14 13 16 14 17 22 23 27 30 38 45 27 29 50 53 42 27 30 30 26 23 20 19 26 30
96 100 69 92 55 72 100 100 100 87 86 24 7 5 4 4 7 9 8 11 15 14 17 16 17 23 21 26 25 39 46 22 28 50 51 52 34 36 32 28 24 20 20 22 28
100 99 77 86 53 75 97 100 100 92 99 33 8 6 6 5 9 8 8 12 15 14 17 17 19 26 20 26 31 42 46 24 27 48 44 50 54 46 43 27 28 27 22 18 23
100 100 71 75 63 81 98 100 100 100 83 28 9 7 8 6 12 10 9 13 15 14 16 16 21 26 21 26 31 40 38 29 29 37 36 41 51 46 40 29 41 31 23 21 20
100 100 67 68 58 92 100 97 100 100 92 28 12 8 9 10 12 9 9 14 15 14 17 20 23 24 24 26 29 31 31 28 34 38 38 39 53 39 39 32 37 35 30 25 21
100 100 61 72 59 98 100 100 100 100 50 21 14 9 10 12 11 9 10 14 14 13 15 20 23 24 24 24 30 30 27 30 33 40 45 38 47 41 36 34 28 27 27 25 23
100 100 66 74 66 99 100 100 100 100 36 20 15 11 13 14 10 8 10 14 14 13 15 20 20 20 22 21 28 31 30 37 38 38 44 40 42 46 34 38 30 26 25 24 25
100 100 70 82 79 100 100 100 100 100 28 18 16 14 14 13 9 8 11 15 14 16 16 20 24 30 25 20 22 28 25 30 36 34 33 35 36 45 35 33 29 25 22 23 25
100 100 72 73 91 66 100 100 100 98 28 17 17 17 14 13 10 9 10 15 14 16 19 24 26 32 31 22 18 19 25 24 26 29 28 27 32 35 35 33 28 26 22 22 23
100 100 74 64 88 78 98 100 100 93 27 16 16 19 16 13 11 11 10 12 16 17 19 23 28 28 30 21 19 20 22 26 29 28 27 26 28 28 28 28 30 28 24 26 24
100 100 80 68 70 70 78 100 100 76 29 18 15 19 14 16 13 16 15 13 15 17 19 22 24 29 29 27 24 22 20 20 22 23 24 26 28 31 28 28 28 29 28 26 23
100 100 70 76 58 90 98 100 100 74 34 22 20 20 18 18 18 15 13 11 13 16 18 20 23 26 30 29 26 24 22 22 22 24 26 25 30 30 27 25 27 33 30 24 20
100 100 67 84 75 97 100 100 100 80 44 30 26 21 21 20 23 19 16 13 13 14 15 16 18 21 23 30 32 34 32 30 28 25 27 27 29 27 22 24 30 33 27 21 19
100 100 72 99 60 80 100 99 100 84 56 39 31 26 30 31 29 26 20 18 15 12 13 15 16 16 17 20 23 23 25 26 25 26 23 27 25 25 27 28 30 27 21 18 20
100 100 82 85 64 90 100 90 100 95 67 44 33 37 38 34 31 31 31 28 23 19 16 15 15 16 16 16 16 18 17 17 19 21 22 25 26 25 25 26 24 20 19 20 22
100 100 93 65 97 76 100 91 96 100 91 73 56 48 47 53 38 28 26 25 24 22 20 19 18 18 18 18 18 19 19 17 16 18 20 23 22 22 23 22 20 20 22 23 23